This is the latest recevied weather packets stored in our database for station/object JF1AJE-13. If no packets are shown the sender has not sent any weather packets the latest 1 day(s).
| Time | Temp. | Humidity | Pressure | Rain* | Wind** | Luminosity | Snow |
|---|---|---|---|---|---|---|---|
| 1778091953 | 16.11° C | 82% | 1011.5 hPa | 0 mm | - | - | - |
| 1778090753 | 16.11° C | 81% | 1011.5 hPa | 0 mm | - | - | - |
| 1778089552 | 16.11° C | 81% | 1011.3 hPa | 0 mm | - | - | - |
| 1778088351 | 16.67° C | 81% | 1011.5 hPa | 0 mm | - | - | - |
| 1778087152 | 16.67° C | 81% | 1011.8 hPa | 0 mm | - | - | - |
| 1778082353 | 17.22° C | 81% | 1012.3 hPa | 0 mm | - | - | - |
| 1778081155 | 17.22° C | 81% | 1012.7 hPa | 0 mm | - | - | - |
| 1778079951 | 17.22° C | 81% | 1012.8 hPa | 0 mm | - | - | - |
| 1778073952 | 17.22° C | 80% | 1013.6 hPa | 0 mm | - | - | - |
| 1778071552 | 17.78° C | 78% | 1013.5 hPa | 0 mm | - | - | - |
| 1778069152 | 17.78° C | 75% | 1013.8 hPa | 0 mm | - | - | - |
| 1778067952 | 17.78° C | 74% | 1013.5 hPa | 0 mm | - | - | - |
| 1778065550 | 17.78° C | 74% | 1013.6 hPa | 0 mm | - | - | - |
| 1778063154 | 18.33° C | 72% | 1013.7 hPa | 0 mm | - | - | - |
| 1778060752 | 18.33° C | 71% | 1013.5 hPa | 0 mm | - | - | - |
| 1778059555 | 18.33° C | 69% | 1013.7 hPa | 0 mm | - | - | - |
| 1778058354 | 18.33° C | 68% | 1013.8 hPa | 0 mm | - | - | - |
| 1778051154 | 19.44° C | 62% | 1013.7 hPa | 0 mm | - | - | - |
| 1778049953 | 20° C | 60% | 1013.8 hPa | 0 mm | - | - | - |
| 1778048753 | 20.56° C | 59% | 1013.8 hPa | 0 mm | - | - | - |
| 1778047554 | 20.56° C | 59% | 1014.1 hPa | 0 mm | - | - | - |
| 1778042753 | 20° C | 58% | 1014.7 hPa | 0 mm | - | - | - |
| 1778040353 | 20° C | 56% | 1015.3 hPa | 0 mm | - | - | - |
| 1778039153 | 20.56° C | 55% | 1015.7 hPa | 0 mm | - | - | - |
| 1778037953 | 20° C | 55% | 1015.7 hPa | 0 mm | - | - | - |
* Rain latest hour (hover to see other rain measurements)
** Current wind speed in m/s (hover to see current wind gust speed)